Regional Weather Roundup
Issued by NWS Sterling, VA

Current Version | Previous Version | Text Only | Print | Product List | Glossary On
Versions: 1 2 3 4 5 6 7 8 9 10 11 12 13 14 15 16 17 18 19 20 21 22 23 24 25 26 27 28 29 30 31 32 33 34 35 36 37 38 39 40 41 42 43 44 45 46 47 48 49 50
000
ASUS41 KLWX 221711
RWRLWX

REGIONAL WEATHER ROUNDUP
NATIONAL WEATHER SERVICE BALTIMORE MD/WASHINGTON DC
1200 PM EST SAT FEB 22 2020

Note: "FAIR" indicates few or no clouds below 12,000 feet
with no significant weather and/or obstructions to visibility.
 TC=TEMPERATURE CELSIUS

 * =Non NWS site. Station does not report precipitation (e.g. rain,
    snow, etc.), thunder, or fog.

DCZ001-MDZ009-015-VAZ040>042-051-053>054-221800-
WASHINGTON METRO

CITY           SKY/WX    TMP DP  RH WIND       PRES   REMARKS
WASHINGTON NAT FAIR      46  20  35 S10       30.38F
DULLES         FAIR      47   7  19 SW5       30.36F
ANDREWS AFB    FAIR      48   6  18 W13       30.36F
FT BELVOIR     FAIR      47   7  19 S3          N/A
QUANTICO       FAIR      43  32  65 S7        30.40F
COLLEGE PARK*  FAIR      46 -12   8 W7        30.37F
LEESBURG*      FAIR      46  10  23 NW6       30.37F
MANASSAS*      FAIR      47  14  26 VRB5      30.37F
GAITHERSBURG*  FAIR      46   2  16 W16       30.35F

$$

MDZ006>007-011-014-221800-
BALTIMORE METRO

CITY           SKY/WX    TMP DP  RH WIND       PRES   REMARKS
BWI AIRPORT    FAIR      48   5  17 NW13      30.35F
MD SCIENCE CTR   N/A     49   4  16 MISG      30.35F
MARTIN STATE   SUNNY     46   3  17 W9G17     30.36F
ANNAPOLIS      FAIR      46   5  18 W8        30.37F
ABERDEEN*      FAIR      46   8  21 SW8       30.34F
FORT MEADE*    FAIR      46   3  17 W8        30.38F

$$

MDZ012-015-019>023-221800-
MARYLAND EASTERN SHORE

CITY           SKY/WX    TMP DP  RH WIND       PRES   REMARKS
OCEAN CITY     FAIR      48  12  23 NW10      30.38F
SALISBURY      FAIR      47  10  22 W12       30.38F
BAY BRIDGE AP* FAIR      43  10  26 SW7       30.37F
CAMBRIDGE*     SUNNY     46  10  23 VRB5G12   30.39F
EASTON*        SUNNY     46  10  23 SW9       30.41F

$$

MDZ017>025-221800-
SOUTHERN MARYLAND

CITY           SKY/WX    TMP DP  RH WIND       PRES   REMARKS
PATUXENT RIVER FAIR      47  13  25 SW8       30.39F
ST INIGOES     FAIR      46  17  31 SW6       30.39F
LEONARDTOWN*   FAIR      45  10  24 SW8       30.40F

$$

MDZ003>005-221800-
NORTH CENTRAL MARYLAND

CITY           SKY/WX    TMP DP  RH WIND       PRES   REMARKS
FREDERICK*     SUNNY     46   7  19 W12G17    30.36F
HAGERSTOWN APT FAIR      45   2  17 W13       30.32F

$$

MDZ501>502-221800-
WESTERN MARYLAND

CITY           SKY/WX    TMP DP  RH WIND       PRES   REMARKS
OAKLAND*       FAIR      32   1  27 W14G23    30.27F WCI  22
CUMBERLAND*    FAIR      46   2  16 SW9       30.38F

$$

VAZ025>031-221800-
SHENANDOAH VALLEY

CITY           SKY/WX    TMP DP  RH WIND       PRES   REMARKS
WINCHESTER*    FAIR      45   7  21 CALM      30.32F
FRONT ROYAL*   FAIR      48   3  15 SW3       30.33F
LURAY*         FAIR      46   0  14 CALM      30.35F
NEW MARKET*    FAIR      47   0  14 SW5       30.35F
STAUNTON*      FAIR      47  -1  13 SW6       30.36F
WAYNESBORO*    FAIR      46  -4  12 CALM      30.35F

$$

WVZ021-048>050-054>055-221800-
EASTERN WEST VIRGINIA PANHANDLE

CITY           SKY/WX    TMP DP  RH WIND       PRES   REMARKS
MARTINSBURG    FAIR      47   3  16 W13       30.32F
PETERSBURG*    FAIR      47   2  15 NW7       30.35F

$$

VAZ036>039-050-221800-
CENTRAL FOOTHILLS

CITY           SKY/WX    TMP DP  RH WIND       PRES   REMARKS
CHARLOTTESVILL FAIR      52   6  15 SE9       30.35F
CULPEPER*      FAIR      48  12  23 CALM      30.38F
ORANGE*        FAIR      48  10  21 CALM      30.36F
GORDONSVILLE*  FAIR      49   9  20 CALM      30.36F
WARRENTON*     FAIR      49   6  17 CALM      30.36F

$$

VAZ055>057-221800-
NORTH AND CENTRAL PIEDMONT

CITY           SKY/WX    TMP DP  RH WIND       PRES   REMARKS
FREDERICKSBRG* FAIR      49  17  27 S3        30.38F
STAFFORD*      FAIR      49  10  20 S3        30.41F

$$

NCZ024-NYZ072-PAZ021-071-VAZ022-071-221800-
OTHER REGIONAL OBSERVATIONS

CITY           SKY/WX    TMP DP  RH WIND       PRES   REMARKS
NEW YORK CITY  FAIR      42   7  23 VRB6      30.26F
PHILADELPHIA   FAIR      45   5  19 SW15      30.32F
PITTSBURGH     FAIR      37   9  31 SW12      30.33F WCI  29
ROANOKE        FAIR      49   6  17 SW8       30.41F
RICHMOND       FAIR      48  16  27 SW7       30.40F
RALEIGH        FAIR      45  27  49 SW5       30.45F

$$

ANZ530>537-221800-
MARINE OBSERVATIONS

STATION/POSITION TIME  TEMP    WIND        PRES
                       AIR SEA DIR/SP/G
                 (UTC) (F)     (DEG/KT/KT) (MB)
THOMAS PT LIGHT  1700   40 41  150/ 11/ 13 1029.1F
BALT KEY BRIDGE  1630   43     260/  8/ 11 1028.2F
TOLCHESTER       1624   39 40  220/ 11/ 13 1028.7F
LEWISETTA        1624   42 40  270/  6/  8 1029.9F
SOLOMONS ISLAND  1630   43 42  230/  9/ 10 1029.2F
PINEY POINT      1630          350/  1/  3   N/A
POTOMAC BUOY     1654   40 43  230/ 14/ 17 1029.6F
CAMBRIDGE        1624   43 42  230/  5/ 10 1029.3F
BISHOPS HEAD     1630   39 40  260/  8/  9 1029.6F

$$




USA.gov is the U.S. government's official web portal to all federal, state and local government web resources and services.